Location: ??????
(44.5958°N, 34.0092°E)
Time: 20:07:35
(UTC+00:00)

USA 229 DEB - Pass Details

Date: 06 June 2020
Orbit: 983 x 1229 km, 63.4° (Epoch: 24 June)

Event Time Altitude Azimuth Distance (km) Brightness Sun altitude
Rises 00:04:29 0° 320° (NW) 3,971 6.9 -15.3°
Reaches altitude 10° 00:07:08 10° 318° (NW) 3,042 6.3 -15.1°
Maximum altitude 00:14:22 67° 238° (WSW) 1,278 3.9 -14.3°
Drops below altitude 10° 00:21:55 10° 158° (SSE) 3,162 5.9 -13.5°
Sets 00:24:43 0° 156° (SSE) 4,135 6.5 -13.2°
